Temperature
8 8 8 9 9 9 9 9 9 9 9 9 9 9 9 10 10 10 10 10 10 10 10 10 10 11 11 11 10 10 10 10 10 10 10 10 10 10 10 10 10 10 10
8 8 8 8 8 8 8 9 9 9 9 9 9 9 9 9 9 9 9 10 10 10 10 10 10 10 10 10 10 10 10 10 10 10 9 9 9 9 10 10 10 10 9
7 8 8 8 8 8 8 8 8 9 9 9 9 9 9 9 9 9 9 9 9 9 9 10 10 10 10 10 10 10 10 10 10 10 10 9 9 9 9 9 9 9 9
7 7 8 8 8 8 8 8 8 8 9 9 8 8 8 8 8 8 9 9 9 9 9 9 9 10 10 10 10 10 10 10 10 9 10 10 10 9 9 9 9 9 9
7 7 7 8 8 8 8 8 8 8 8 8 8 8 8 8 8 8 8 9 9 9 9 9 9 9 10 10 10 10 10 10 10 9 9 10 10 10 10 9 9 9 9
7 7 7 7 8 8 7 7 7 8 8 8 8 8 8 8 8 8 8 8 8 8 8 9 9 9 9 9 10 10 10 10 10 9 9 10 10 10 10 10 9 9 9
7 7 7 7 7 7 7 7 7 7 7 7 8 8 8 8 8 8 8 8 8 8 8 8 9 9 9 9 9 9 9 9 9 9 9 9 10 10 10 10 9 9 9
7 7 7 7 7 7 7 7 7 7 7 7 7 7 7 7 7 7 7 8 8 8 8 8 8 9 9 9 9 9 9 9 9 9 9 9 10 10 10 10 9 8 8
6 6 6 6 6 6 7 7 7 7 7 7 7 7 7 7 7 7 7 7 8 8 8 8 8 9 9 9 9 9 9 9 9 9 9 9 9 9 9 10 10 9 8
6 6 6 6 6 6 6 6 6 6 6 6 6 6 7 7 7 7 7 7 7 8 8 8 8 8 8 8 9 9 9 9 9 9 9 9 9 9 9 9 9 9 9
5 5 5 6 6 6 6 6 6 6 6 6 6 6 6 6 7 7 7 7 7 7 8 8 8 8 8 8 8 8 9 9 9 9 9 9 9 9 9 9 9 9 9
5 5 5 5 5 5 5 5 5 5 6 6 6 6 6 6 7 6 6 7 7 7 7 7 8 8 8 8 8 8 8 9 9 9 8 8 9 8 8 8 9 9 9
5 5 5 5 5 5 5 5 5 5 5 5 6 6 6 6 6 6 6 6 6 7 7 7 7 7 8 8 8 8 8 9 9 9 9 8 8 8 8 8 8 8 8
4 4 4 4 4 4 4 5 5 5 5 5 5 5 5 6 6 6 6 6 6 6 7 7 7 7 7 8 8 8 8 8 8 8 9 9 9 8 8 8 8 8 8
4 4 4 4 4 4 4 4 5 5 5 5 5 5 5 5 5 5 6 6 6 6 6 6 7 7 7 7 7 8 8 8 8 8 8 8 9 8 8 8 8 8 8
4 4 3 3 3 3 4 4 4 5 5 5 4 5 5 5 5 5 5 6 6 6 6 6 6 6 7 7 7 8 8 8 8 8 8 8 8 8 8 8 8 8 7
4 3 3 3 3 3 3 3 4 4 4 4 4 4 4 5 5 5 5 5 5 5 5 6 6 6 6 7 7 8 8 8 8 8 8 8 8 8 8 8 8 7 7
3 3 3 3 3 3 3 3 4 4 4 4 4 4 4 4 5 5 5 5 5 5 5 5 5 6 6 7 7 7 7 7 7 7 8 8 8 8 8 7 7 7 7
3 3 3 3 3 3 3 3 3 3 3 3 3 4 4 4 4 4 4 4 4 4 4 4 5 5 6 6 6 7 7 7 7 7 7 7 7 7 7 7 7 7 7
3 3 2 2 3 2 3 3 3 3 3 3 3 3 3 3 3 3 4 4 4 4 4 4 5 5 5 6 6 6 6 6 7 7 7 7 7 7 7 7 7 7 6
3 2 2 2 2 2 2 2 2 2 2 2 2 2 2 2 3 3 3 4 4 4 4 4 4 5 5 5 6 6 6 6 6 6 6 6 7 7 7 7 7 6 6
2 2 2 2 2 2 2 2 2 2 2 2 2 2 2 2 2 3 3 3 3 4 4 4 4 4 5 5 5 6 6 6 6 6 6 6 6 6 6 6 6 6 6
2 2 2 2 2 2 1 1 1 1 1 1 1 2 2 2 2 2 3 3 3 3 3 3 4 4 4 4 5 5 5 6 5 5 5 5 5 6 6 6 5 5 5
2 1 1 1 1 1 1 1 1 1 1 1 1 1 1 2 2 2 2 2 2 3 3 3 3 3 4 4 4 5 5 5 5 5 5 5 5 5 5 5 5 5 5
1 1 1 1 1 1 1 1 1 1 1 1 1 1 1 1 1 2 2 2 2 2 2 2 3 3 3 4 4 4 4 4 5 4 4 5 5 4 4 4 4 4 4
1 1 1 0 0 0 0 0 0 0 0 0 1 1 1 1 1 1 2 2 2 2 2 3 2 3 3 3 3 3 4 4 4 4 4 4 4 4 4 4 4 4 4
Wind_Speed
9 8 6 4 4 5 6 6 6 5 5 4 4 4 5 4 5 6 8 10 10 11 9 7 7 7 8 8 8 6 6 5 6 5 3 1 1 4 4 4 4 5 6
10 9 6 4 4 5 6 6 6 6 5 5 6 5 5 5 6 6 7 9 10 11 10 9 8 8 7 8 9 8 6 5 6 5 5 2 1 3 4 4 5 5 4
9 8 8 6 5 6 6 6 7 6 6 6 4 3 2 2 4 5 6 8 10 11 11 11 9 9 9 10 10 10 9 7 6 6 6 5 5 2 2 4 5 5 4
8 8 8 8 7 7 6 7 7 7 6 6 6 7 6 6 6 7 7 8 9 11 11 11 10 10 9 10 11 10 8 9 8 6 3 3 4 4 3 2 3 5 5
8 9 8 8 7 6 6 7 7 6 5 6 8 8 7 7 5 6 7 8 8 10 10 10 10 10 9 11 11 10 10 9 8 7 5 3 2 3 4 4 4 3 4
9 9 8 8 7 6 6 6 6 6 5 6 8 9 9 8 7 8 8 8 7 8 10 10 10 9 9 11 11 11 12 11 10 8 7 6 5 5 4 4 6 5 3
9 9 10 9 8 7 7 6 6 7 6 7 8 8 9 9 9 9 9 8 7 7 10 10 10 9 9 10 10 11 12 12 12 10 8 7 6 5 4 4 4 3 1
9 10 10 9 9 8 7 7 7 8 7 7 7 7 7 7 7 8 8 9 9 9 10 10 11 10 10 10 10 10 11 11 12 12 10 7 6 6 5 5 5 3 2
10 10 10 10 10 10 9 8 8 8 7 7 7 7 7 7 7 7 7 8 8 8 9 10 11 11 10 10 10 10 11 11 11 11 11 9 6 6 5 5 6 6 5
12 12 12 12 11 10 9 8 7 8 7 6 6 6 7 7 7 7 7 7 7 7 8 9 10 10 11 11 10 10 10 12 11 9 11 10 7 7 6 6 5 5 5
12 12 12 12 11 10 9 8 7 7 6 6 5 6 7 6 6 6 7 6 5 6 8 8 9 10 10 11 11 11 11 13 12 11 12 12 10 8 7 6 6 5 5
12 12 12 12 11 10 9 8 8 6 5 5 5 5 5 4 4 5 6 5 6 6 6 7 8 9 9 10 11 12 12 13 13 13 12 12 10 10 8 7 7 6 5
13 12 11 11 11 11 9 8 8 7 6 4 4 3 3 2 3 4 4 4 5 4 5 6 7 8 9 9 11 11 12 13 13 13 13 13 13 12 9 9 8 6 5
12 11 11 11 12 11 10 7 7 7 5 4 3 3 3 3 3 3 3 4 4 4 4 5 6 7 8 9 10 10 11 12 12 12 12 12 13 14 12 10 9 7 6
12 12 11 11 11 11 11 9 7 6 5 3 3 3 3 3 3 3 3 3 3 4 3 4 4 5 6 8 9 10 11 11 11 10 11 11 13 15 13 10 10 9 7
12 12 11 11 11 11 11 10 8 7 5 4 4 4 3 3 3 3 3 2 2 2 2 3 4 4 5 7 9 10 11 11 11 11 10 10 11 14 15 15 14 13 10
11 11 11 10 10 10 10 9 8 6 5 4 4 4 3 3 3 3 3 2 2 2 3 3 4 5 6 6 8 10 10 11 11 11 10 8 9 12 10 12 12 11 12
10 10 9 10 10 9 8 8 7 5 4 4 4 5 4 4 4 3 3 3 3 2 3 4 4 4 4 5 6 7 9 9 9 10 10 10 9 11 11 10 8 7 7
9 8 8 8 8 8 8 8 7 5 5 5 5 5 5 5 5 4 4 3 3 3 3 3 2 2 2 3 5 7 6 7 8 8 9 10 9 13 14 11 9 7 4
7 7 7 7 7 8 7 7 7 5 5 5 5 5 4 4 4 4 4 4 3 4 3 3 2 2 2 3 5 6 5 6 6 6 8 11 10 13 15 11 10 9 7
8 7 6 6 7 7 6 7 6 6 6 5 5 4 4 4 4 4 4 3 3 3 2 2 2 2 2 2 3 5 5 6 6 5 5 7 11 12 14 12 9 10 9
8 7 6 7 7 5 5 6 6 6 6 5 5 5 4 4 4 4 4 3 3 2 2 2 2 2 1 2 1 3 4 5 6 5 5 6 10 11 12 10 10 13 11
8 7 7 8 7 5 4 6 7 6 5 5 5 5 5 4 4 3 4 3 2 1 1 1 2 2 2 1 1 1 3 4 4 4 6 7 9 9 8 11 13 11 8
8 7 7 7 7 7 6 6 6 5 5 5 5 5 4 5 5 3 3 2 2 2 2 1 2 2 2 1 1 0 2 4 4 4 6 7 7 6 8 9 8 6 7
7 6 6 7 8 8 7 7 5 4 5 5 5 5 4 4 4 3 3 3 3 3 3 2 2 2 3 3 3 2 2 3 4 5 4 4 4 4 4 5 5 5 6
7 7 7 7 8 8 8 7 5 4 5 5 5 4 3 3 3 3 4 5 4 6 6 5 4 3 4 4 3 2 2 4 7 6 5 5 4 5 6 6 5 5 6
Wind_Direction
300 302 284 282 267 260 256 253 251 254 243 207 197 211 208 213 215 216 211 208 206 203 199 200 193 192 195 194 188 177 177 181 166 146 140 112 183 195 202 194 192 198 200
317 317 311 294 275 268 263 256 249 247 243 220 205 211 211 214 217 216 216 211 209 206 204 200 198 198 197 192 191 178 174 180 175 157 148 155 234 231 206 196 199 200 191
304 311 307 292 278 270 262 263 260 256 247 225 210 218 214 221 216 219 221 216 214 212 209 206 202 202 199 197 193 187 180 183 191 179 163 166 200 196 210 203 198 194 193
306 307 307 298 281 269 265 261 260 255 249 222 205 206 215 230 232 226 226 221 219 215 211 207 204 204 205 200 196 193 190 181 187 193 196 179 157 161 182 211 199 195 199
314 309 306 295 286 274 270 269 267 262 253 227 214 210 219 227 230 230 227 224 223 218 213 208 208 208 208 203 197 195 192 192 191 187 176 171 161 149 161 199 201 204 208
322 316 311 307 306 298 285 277 269 266 255 236 223 215 220 224 226 231 230 228 225 220 216 212 210 212 209 203 200 200 196 197 196 195 188 178 172 178 168 187 197 207 210
321 322 322 320 314 307 293 281 270 269 262 245 234 225 224 219 224 229 230 232 226 224 218 217 213 213 213 206 199 202 202 198 196 201 203 198 192 177 166 166 182 192 207
320 322 321 319 314 305 298 289 279 271 264 250 245 241 237 228 229 229 230 230 228 226 218 216 216 215 213 209 202 204 206 201 200 203 200 198 197 184 176 169 166 181 224
324 324 324 323 318 313 303 291 284 282 271 256 251 249 241 232 234 234 237 234 231 230 220 218 217 215 213 209 204 208 208 201 202 204 202 199 197 189 184 174 170 174 203
327 327 327 324 320 316 309 303 290 283 280 267 261 258 248 235 231 231 234 238 236 230 225 221 217 214 214 210 207 206 207 203 203 201 199 198 196 189 184 179 177 179 187
322 323 324 324 320 321 320 317 308 298 290 276 267 266 254 242 236 230 229 232 239 233 229 222 219 215 216 209 206 210 205 206 203 199 198 197 189 189 185 179 176 181 179
320 322 324 327 329 324 320 321 321 312 301 289 278 272 259 248 239 235 231 230 232 235 236 227 221 217 216 211 205 208 207 204 202 200 196 197 187 188 186 183 182 186 183
322 325 328 330 329 327 321 321 321 318 315 304 295 294 272 257 253 245 237 229 230 236 239 232 226 223 218 215 211 208 207 203 201 197 195 194 185 190 189 184 185 186 179
319 323 327 328 327 327 324 318 319 318 320 314 306 305 290 265 263 264 251 244 237 235 236 236 234 234 223 215 212 209 204 200 199 194 193 192 188 188 184 183 183 177 170
320 321 323 324 326 329 330 325 321 322 328 333 317 303 303 290 271 270 262 246 242 241 233 232 238 245 227 216 212 206 198 197 195 192 192 192 189 185 183 180 178 174 175
316 317 320 322 325 327 328 330 329 332 343 349 333 318 317 308 295 292 287 266 260 260 253 245 244 249 235 221 215 204 196 193 191 189 188 187 185 182 180 176 175 176 180
311 315 317 316 318 321 323 327 325 331 343 344 337 333 327 318 309 304 314 309 288 283 280 270 257 252 237 222 214 201 195 190 189 185 183 182 183 177 178 174 173 178 181
306 309 312 313 314 318 321 324 327 333 339 340 338 337 335 326 329 330 328 318 307 292 279 272 266 260 236 216 205 190 191 187 184 182 181 179 179 178 170 167 171 179 187
294 298 301 304 309 314 317 323 325 328 335 336 333 329 335 334 332 329 321 317 309 297 287 278 274 278 265 233 204 180 176 178 178 177 178 177 180 175 165 167 169 170 179
295 299 305 309 312 314 320 324 322 325 325 322 321 324 329 326 319 311 307 308 303 297 296 302 299 285 275 262 207 173 164 168 172 176 179 179 178 175 168 172 173 176 176
295 301 306 308 306 313 324 322 321 315 306 308 314 319 316 312 305 311 307 305 307 305 307 318 316 301 276 276 218 182 167 171 169 177 184 185 173 174 174 175 180 177 162
299 303 305 302 304 309 317 317 312 307 309 311 312 311 311 311 315 312 310 305 308 313 323 343 347 346 325 313 237 200 179 172 171 177 181 178 173 173 173 174 168 156 148
294 300 298 301 307 312 314 309 306 310 313 306 303 304 308 305 300 297 306 315 317 319 316 336 330 329 330 318 318 210 171 169 171 167 162 164 167 169 171 165 158 153 151
294 298 302 305 306 308 307 299 302 308 310 302 299 299 303 305 303 299 295 296 306 304 307 301 302 311 310 320 354 226 166 149 147 143 144 142 151 158 156 155 155 156 160
292 293 292 293 294 302 304 304 304 309 307 298 298 301 299 302 314 320 307 291 275 268 275 269 269 268 284 284 292 280 218 184 167 145 136 137 147 151 152 150 149 152 152
292 294 292 291 295 300 302 302 303 299 298 301 301 300 300 304 308 318 327 324 302 309 305 286 273 270 273 282 287 278 233 181 157 144 153 162 167 173 171 165 160 161 160
Height
1433 1432 1431 1429 1428 1428 1428 1427 1427 1428 1429 1429 1430 1431 1432 1434 1436 1438 1440 1442 1444 1447 1449 1452 1455 1458 1460 1463 1466 1469 1472 1475 1479 1482 1485 1489 1491 1493 1496 1498 1500 1502 1504
1430 1429 1427 1426 1425 1424 1423 1423 1423 1423 1424 1424 1425 1427 1427 1429 1431 1432 1434 1436 1438 1441 1443 1446 1449 1452 1455 1458 1461 1464 1466 1470 1473 1476 1480 1484 1488 1488 1491 1493 1495 1498 1500
1429 1427 1425 1423 1421 1420 1419 1419 1418 1418 1419 1420 1421 1422 1423 1424 1425 1427 1428 1431 1433 1435 1438 1440 1443 1446 1449 1452 1455 1459 1462 1464 1468 1471 1474 1478 1479 1483 1485 1487 1490 1493 1495
1427 1425 1422 1420 1418 1417 1416 1415 1414 1413 1414 1415 1415 1416 1417 1418 1420 1422 1423 1425 1427 1429 1431 1434 1437 1440 1443 1446 1450 1453 1457 1460 1462 1466 1469 1472 1473 1476 1479 1483 1485 1488 1490
1426 1423 1420 1418 1416 1414 1412 1410 1409 1409 1409 1410 1410 1411 1412 1414 1415 1417 1418 1419 1420 1423 1425 1428 1431 1433 1436 1440 1444 1447 1451 1454 1456 1459 1462 1466 1468 1470 1472 1475 1479 1483 1485
1425 1421 1418 1415 1412 1410 1408 1406 1405 1405 1404 1404 1405 1406 1407 1408 1409 1410 1411 1412 1414 1416 1419 1422 1425 1428 1430 1434 1437 1441 1445 1448 1451 1454 1457 1460 1462 1465 1467 1470 1473 1476 1479
1423 1419 1415 1412 1409 1407 1405 1403 1402 1400 1400 1400 1400 1400 1401 1401 1403 1404 1405 1407 1408 1410 1412 1415 1418 1422 1424 1428 1431 1435 1439 1442 1445 1448 1452 1455 1458 1461 1463 1466 1469 1472 1474
1421 1418 1414 1411 1407 1404 1402 1399 1397 1395 1395 1395 1395 1395 1395 1396 1397 1398 1399 1401 1402 1404 1406 1409 1413 1416 1419 1422 1425 1428 1432 1436 1439 1443 1446 1449 1453 1456 1459 1462 1464 1467 1469
1420 1416 1412 1408 1404 1400 1397 1395 1392 1391 1390 1390 1390 1390 1390 1390 1391 1392 1394 1395 1396 1398 1401 1403 1407 1409 1413 1416 1419 1422 1426 1429 1433 1437 1440 1443 1447 1451 1454 1457 1460 1462 1464
1417 1413 1409 1405 1401 1397 1394 1391 1389 1387 1386 1386 1385 1385 1384 1384 1385 1385 1386 1387 1389 1392 1395 1397 1401 1403 1407 1410 1413 1416 1420 1423 1426 1430 1434 1437 1441 1445 1448 1451 1454 1457 1459
1417 1412 1407 1403 1398 1395 1391 1388 1386 1384 1382 1381 1380 1380 1379 1379 1379 1379 1380 1381 1383 1386 1389 1391 1394 1397 1400 1403 1406 1409 1413 1416 1420 1424 1427 1430 1435 1439 1442 1445 1448 1451 1454
1415 1410 1405 1401 1396 1392 1389 1386 1383 1381 1379 1377 1376 1375 1374 1374 1374 1374 1375 1377 1379 1381 1383 1385 1388 1390 1393 1396 1399 1402 1405 1409 1412 1416 1420 1424 1427 1432 1436 1439 1442 1445 1448
1412 1408 1403 1399 1394 1390 1386 1383 1379 1377 1375 1374 1372 1372 1371 1370 1370 1371 1372 1373 1374 1376 1378 1379 1381 1384 1386 1389 1392 1395 1398 1402 1406 1410 1413 1417 1420 1425 1430 1433 1437 1440 1443
1410 1406 1401 1397 1392 1387 1383 1380 1377 1375 1373 1372 1370 1369 1368 1367 1367 1367 1368 1369 1370 1371 1372 1373 1375 1377 1379 1382 1386 1389 1392 1395 1399 1403 1407 1411 1414 1419 1423 1427 1431 1434 1437
1408 1404 1400 1395 1390 1385 1380 1377 1374 1373 1371 1369 1367 1366 1365 1365 1365 1365 1366 1366 1366 1367 1367 1368 1369 1370 1372 1375 1378 1382 1385 1388 1392 1396 1400 1404 1408 1413 1417 1420 1424 1428 1431
1406 1402 1398 1393 1388 1384 1379 1376 1373 1370 1369 1367 1365 1365 1364 1363 1363 1362 1363 1363 1363 1363 1363 1364 1364 1365 1367 1369 1372 1375 1378 1382 1385 1389 1394 1398 1402 1406 1411 1415 1419 1423 1426
1404 1400 1396 1391 1387 1383 1379 1375 1372 1370 1368 1366 1365 1363 1362 1361 1360 1360 1360 1359 1359 1359 1359 1360 1360 1360 1362 1364 1367 1370 1373 1376 1380 1383 1388 1392 1396 1401 1405 1409 1413 1417 1421
1402 1398 1395 1390 1386 1383 1379 1375 1372 1370 1368 1366 1364 1362 1361 1360 1359 1358 1358 1357 1357 1357 1356 1356 1357 1357 1358 1361 1363 1365 1368 1371 1375 1378 1382 1386 1391 1396 1400 1404 1408 1411 1415
1401 1397 1393 1389 1385 1381 1378 1374 1372 1369 1367 1365 1363 1361 1360 1358 1357 1357 1356 1355 1354 1354 1354 1354 1353 1353 1354 1356 1359 1362 1364 1366 1370 1374 1378 1382 1386 1391 1395 1399 1402 1406 1409
1397 1394 1390 1387 1383 1380 1376 1373 1370 1368 1366 1364 1362 1361 1359 1358 1356 1355 1354 1353 1352 1352 1351 1351 1351 1350 1351 1353 1355 1358 1360 1362 1366 1370 1374 1378 1382 1386 1390 1393 1397 1400 1403
1394 1390 1387 1384 1381 1378 1375 1371 1369 1366 1364 1363 1361 1359 1358 1357 1355 1353 1352 1351 1350 1350 1350 1349 1349 1349 1350 1351 1352 1355 1357 1360 1363 1366 1369 1373 1377 1381 1386 1389 1392 1395 1399
1390 1387 1384 1381 1379 1376 1373 1369 1367 1365 1362 1360 1359 1357 1356 1354 1353 1351 1350 1349 1348 1348 1347 1347 1346 1347 1348 1349 1350 1352 1355 1358 1360 1363 1366 1369 1373 1377 1381 1385 1388 1392 1396
1387 1384 1381 1378 1375 1373 1370 1367 1365 1363 1360 1358 1356 1355 1353 1351 1350 1349 1347 1347 1346 1345 1345 1345 1345 1345 1346 1347 1348 1350 1353 1355 1358 1360 1363 1367 1370 1374 1377 1381 1384 1388 1390
1384 1381 1377 1374 1372 1370 1368 1365 1362 1360 1357 1355 1353 1351 1350 1348 1348 1347 1346 1345 1344 1343 1343 1343 1343 1343 1344 1344 1346 1348 1350 1352 1355 1358 1361 1364 1367 1370 1373 1377 1380 1383 1385
1380 1377 1375 1372 1369 1367 1365 1362 1360 1357 1354 1352 1350 1349 1347 1346 1344 1343 1343 1342 1342 1343 1342 1342 1342 1342 1341 1342 1344 1345 1347 1349 1352 1354 1357 1361 1363 1366 1369 1372 1375 1378 1381
1376 1373 1371 1369 1366 1363 1361 1359 1357 1354 1351 1349 1347 1346 1344 1343 1342 1340 1340 1340 1340 1340 1340 1340 1341 1341 1341 1342 1342 1343 1345 1347 1350 1352 1354 1357 1360 1362 1365 1368 1371 1374 1377